Location: San Martino di Castrozza
(46.2667°N, 11.8000°E)
Time: 15:55:39
(UTC+00:00)

NPP - Pass Details

Date: 23 April 2021
Orbit: 826 x 828 km, 98.7° (Epoch: 12 May)

Event Time Altitude Azimuth Distance (km) Brightness Sun altitude
Rises 01:11:03 0° 13° (NNE) 3,376 8.0 -25.3°
Reaches altitude 10° 01:13:24 10° 13° (NNE) 2,439 7.0 -25.1°
Maximum altitude 01:18:49 83° 287° (WNW) 838 3.5 -24.6°
Enters shadow 01:19:38 65° 211° (SSW) 906 3.5 -24.5°
